EW7164 Weather Reports


time (UTC)temp
C
wind
direction
speed
KPH
gust
KPH
rain 1hr
cm
rain 24hr
cm
rain mn
cm
humidity
%
barometer
mb
20260831230641 18 245 16.1 25.7 0.00 0.56 0.00 58 1018.4
20260831225540 18 242 16.1 25.7 0.00 0.56 0.00 57 1018.4
20260831224541 19 246 19.3 27.4 0.00 0.56 0.00 57 1018.3
20260831223639 19 250 14.5 19.3 0.00 0.56 0.00 55 1018.5
20260831222641 20 242 12.9 17.7 0.00 0.56 0.00 55 1018.3
20260831221739 20 237 16.1 27.4 0.00 0.56 0.00 54 1018.3
20260831220743 20 230 14.5 20.9 0.00 0.56 0.00 54 1018.2
20260831220641 20 237 14.5 20.9 0.00 0.56 0.00 54 1018.3
20260831215740 20 230 12.9 17.7 0.00 0.56 0.00 56 1018.4
20260831213840 20 225 12.9 17.7 0.00 0.56 0.00 57 1018.2
20260831212842 21 222 12.9 17.7 0.00 0.56 0.00 56 1018.2
20260831211842 21 228 8.0 12.9 0.00 0.56 0.00 52 1018.2
20260831211739 21 231 4.8 9.7 0.00 0.56 0.00 52 1018.2
20260831210755 22 236 9.7 14.5 0.00 0.56 0.00 51 1018.1
20260831205841 22 199 6.4 8.0 0.00 0.56 0.00 46 1017.9
20260831204940 22 247 9.7 12.9 0.00 0.56 0.00 46 1018.1
20260831203942 22 221 6.4 11.3 0.00 0.56 0.00 45 1018.1
20260831202040 22 297 19.3 24.1 0.00 0.56 0.00 42 1018.0
20260831201940 23 304 17.7 27.4 0.00 0.56 0.00 42 1018.1
20260831200939 22 269 12.9 16.1 0.00 0.56 0.00 40 1018.2
20260831194942 22 270 4.8 6.4 0.00 0.56 0.00 43 1018.6
20260831192941 21 73 6.4 9.7 0.00 0.56 0.00 48 1018.7
20260831191942 21 105 6.4 8.0 0.00 0.56 0.00 50 1018.7
20260831190940 21 43 6.4 9.7 0.00 0.56 0.00 51 1018.9
20260831185942 21 76 9.7 12.9 0.00 0.56 0.00 52 1018.8
20260831184942 21 93 8.0 11.3 0.00 0.56 0.00 51 1019.0
20260831183941 21 58 11.3 14.5 0.00 0.56 0.00 50 1018.8
20260831182941 21 142 4.8 9.7 0.00 0.56 0.00 52 1019.2
20260831182041 21 81 8.0 11.3 0.00 0.56 0.00 49 1019.3
20260831181041 21 322 8.0 11.3 0.00 0.56 0.00 50 1019.3
20260831180943 21 353 1.6 8.0 0.00 0.56 0.00 50 1019.5
20260831175943 21 283 3.2 6.4 0.00 0.56 0.00 51 1019.3
20260831174940 21 123 4.8 8.0 0.00 0.56 0.00 51 1019.5
20260831174842 21 86 6.4 11.3 0.00 0.56 0.00 51 1019.6
20260831173840 21 79 6.4 9.7 0.00 0.56 0.00 51 1019.6
20260831172842 21 300 4.8 11.3 0.00 0.56 0.00 51 1019.5
20260831172740 21 303 8.0 14.5 0.00 0.56 0.00 51 1019.6
20260831171742 21 264 9.7 14.5 0.00 0.56 0.00 50 1019.7
20260831170742 21 45 3.2 6.4 0.00 0.56 0.00 53 1019.6
20260831165840 20 275 4.8 9.7 0.00 0.56 0.00 55 1019.6
20260831165741 20 267 8.0 12.9 0.00 0.56 0.00 55 1019.6
20260831164840 20 263 12.9 19.3 0.00 0.56 0.00 56 1019.7
20260831163840 20 267 9.7 14.5 0.00 0.56 0.00 56 1019.9
20260831162841 20 275 14.5 20.9 0.00 0.56 0.00 57 1019.8
20260831161940 19 277 8.0 11.3 0.00 0.56 0.00 58 1019.9
20260831160942 19 247 6.4 11.3 0.00 0.56 0.00 58 1019.9
20260831155942 19 323 4.8 11.3 0.00 0.56 0.00 57 1020.1
20260831154940 19 252 8.0 12.9 0.00 0.56 0.00 59 1020.4
20260831152940 18 346 12.9 19.3 0.00 0.56 0.00 60 1020.5
20260831151941 18 353 11.3 16.1 0.00 0.56 0.00 61 1020.5
20260831151040 18 330 9.7 12.9 0.00 0.56 0.00 62 1020.4
20260831150042 18 321 11.3 14.5 0.00 0.56 0.00 63 1020.5
20260831144041 17 341 16.1 20.9 0.00 0.56 0.00 66 1020.5
20260831143041 16 320 22.5 27.4 0.00 0.56 0.00 66 1020.3
20260831142055 16 312 17.7 20.9 0.00 0.56 0.00 67 1020.4
20260831141140 16 324 14.5 19.3 0.00 0.56 0.00 67 1020.3
20260831140142 16 7 14.5 20.9 0.00 0.56 0.00 69 1020.1
20260831135239 16 305 12.9 20.9 0.00 0.56 0.00 72 1020.0
20260831135142 16 325 11.3 16.1 0.00 0.56 0.00 73 1020.0
20260831134142 16 315 14.5 20.9 0.00 0.56 0.00 72 1019.9
20260831133241 15 270 9.7 12.9 0.00 0.56 0.00 75 1020.0
20260831132340 15 278 11.3 19.3 0.00 0.56 0.00 74 1020.0
20260831132243 15 270 11.3 17.7 0.00 0.56 0.00 74 1020.1
20260831131243 15 275 9.7 16.1 0.00 0.56 0.00 74 1020.0
20260831130239 15 313 9.7 14.5 0.00 0.56 0.00 73 1020.1
20260831125242 15 317 9.7 12.9 0.00 0.56 0.00 75 1020.1
20260831124239 15 311 9.7 12.9 0.00 0.56 0.00 76 1020.2
20260831123241 14 312 9.7 14.5 0.00 0.56 0.00 76 1020.1
20260831122340 13 315 6.4 9.7 0.00 0.56 0.00 79 1020.1
20260831122240 13 315 8.0 12.9 0.00 0.56 0.00 79 1020.2
20260831122141 13 318 6.4 9.7 0.00 0.56 0.00 79 1020.1
20260831121141 13 299 4.8 8.0 0.00 0.56 0.00 80 1020.1
20260831120140 13 309 12.9 19.3 0.00 0.56 0.00 80 1020.1
20260831115141 13 272 4.8 6.4 0.00 0.56 0.00 82 1020.1
20260831114239 13 283 8.0 11.3 0.00 0.56 0.00 84 1020.0
20260831113241 12 313 9.7 12.9 0.00 0.56 0.00 84 1019.8
20260831112339 12 313 11.3 17.7 0.00 0.56 0.00 85 1019.8
20260831111342 12 292 11.3 16.1 0.00 0.56 0.00 85 1019.7
20260831110339 12 310 9.7 16.1 0.00 0.56 0.00 86 1019.5
20260831105342 12 299 12.9 17.7 0.00 0.56 0.00 87 1019.4
20260831104341 12 294 12.9 17.7 0.00 0.56 0.00 87 1019.2
20260831103441 12 295 12.9 17.7 0.00 0.56 0.00 88 1019.3
20260831102458 12 307 9.7 14.5 0.00 0.56 0.00 88 1019.2
20260831101442 12 307 11.3 14.5 0.00 0.56 0.00 88 1019.0
20260831100440 12 295 12.9 17.7 0.00 0.56 0.00 89 1018.9
20260831095442 12 315 11.3 14.5 0.00 0.56 0.00 89 1018.8
20260831093541 12 313 11.3 12.9 0.00 0.56 0.00 88 1018.4
20260831090641 12 273 14.5 17.7 0.00 0.56 0.00 88 1018.1
20260831085641 12 294 14.5 17.7 0.00 0.56 0.00 87 1018.1
20260831084641 12 286 14.5 17.7 0.00 0.56 0.00 88 1018.1
20260831083642 12 278 11.3 16.1 0.00 0.56 0.00 89 1018.3
20260831082740 12 270 11.3 16.1 0.00 0.56 0.00 89 1018.1
20260831081743 12 270 11.3 16.1 0.00 0.56 0.00 88 1018.3
20260831080839 12 307 11.3 16.1 0.00 0.56 0.00 88 1018.3
20260831075841 12 303 12.9 16.1 0.00 0.56 0.00 87 1018.1
20260831074841 12 299 14.5 17.7 0.00 0.56 0.00 89 1018.1
20260831073839 12 294 12.9 19.3 0.00 0.56 0.00 90 1018.0
20260831072842 12 301 9.7 11.3 0.00 0.56 0.00 90 1017.8
20260831072740 12 292 9.7 12.9 0.00 0.56 0.00 89 1017.8
20260831071740 13 273 8.0 14.5 0.00 0.56 0.00 88 1017.8
20260831070743 13 304 16.1 20.9 0.00 0.56 0.00 89 1017.8
20260831064841 13 315 11.3 12.9 0.00 0.56 0.00 89 1017.5
20260831063940 13 313 11.3 17.7 0.00 0.56 0.00 89 1017.4
20260831062940 13 312 14.5 20.9 0.00 0.56 0.00 89 1017.4
20260831061941 13 314 16.1 25.7 0.00 0.56 0.00 89 1017.2
20260831061039 14 304 17.7 25.7 0.00 0.56 0.00 89 1017.3
20260831060042 14 311 12.9 19.3 0.00 0.56 0.00 89 1017.2
20260831055141 14 306 14.5 17.7 0.00 0.56 0.00 89 1017.1
20260831054142 14 315 14.5 19.3 0.00 0.56 0.00 91 1017.0
20260831053240 14 293 17.7 20.9 0.00 0.56 0.00 92 1016.9
20260831052240 14 299 19.3 25.7 0.00 0.56 0.00 93 1016.9
20260831051242 15 279 17.7 20.9 0.00 0.56 0.00 92 1016.9
20260831050240 15 291 16.1 19.3 0.00 0.56 0.00 93 1016.6
20260831045241 15 270 16.1 24.1 0.00 0.56 0.00 93 1016.6
20260831043239 15 269 14.5 24.1 0.00 0.56 0.00 92 1016.7
20260831042241 15 269 12.9 17.7 0.00 0.56 0.00 92 1016.6
20260831040241 15 270 12.9 16.1 0.08 0.56 0.00 91 1016.4
20260831035327 15 267 16.1 22.5 0.13 0.56 0.56 91 1016.3
20260831035223 15 270 14.5 20.9 0.13 0.56 0.56 91 1016.3
20260831034225 15 270 14.5 20.9 0.15 0.56 0.56 90 1015.9
20260831033225 15 261 11.3 14.5 0.15 0.56 0.56 91 1016.0
20260831031225 15 261 9.7 12.9 0.15 0.51 0.51 90 1015.7
20260831030224 15 254 11.3 17.7 0.13 0.48 0.48 89 1016.1
20260831025226 16 263 20.9 25.7 0.08 0.43 0.41 87 1016.6
20260831023223 16 268 20.9 29.0 0.08 0.41 0.38 88 1016.4
20260831022224 16 265 11.3 17.7 0.05 0.38 0.38 87 1016.1
20260831021323 16 269 12.9 17.7 0.03 0.36 0.36 86 1016.3
20260831015324 16 270 12.9 20.9 0.03 0.36 0.36 86 1016.6
20260831011525 16 315 4.8 8.0 0.25 0.33 0.33 91 1016.5
20260831010624 16 270 3.2 3.2 0.28 0.33 0.33 91 1016.6
20260831005623 16 308 6.4 8.0 0.30 0.33 0.33 89 1016.7
20260831005525 16 292 3.2 6.4 0.30 0.33 0.33 90 1016.5
20260831004525 17 317 9.7 12.9 0.23 0.25 0.25 89 1016.7
20260831002624 17 283 16.1 20.9 0.10 0.13 0.13 87 1016.3
20260831001624 17 267 20.9 30.6 0.08 0.08 0.08 85 1015.8
20260831001525 17 272 22.5 29.0 0.08 0.08 0.08 84 1015.8
20260831000525 18 263 30.6 40.2 0.05 0.05 0.05 81 1015.6
20260830235525 18 267 17.7 27.4 0.03 0.03 0.03 80 1015.3
20260830234524 18 252 17.7 22.5 0.03 0.03 0.03 81 1015.2
20260830233526 18 250 19.3 29.0 0.03 0.03 0.03 79 1014.9
20260830232524 18 260 16.1 27.4 0.00 0.00 0.00 78 1015.0